www.pogodaiklimat.ru

Погода и климат >> Архив погоды >> Россия >> Свердловская область >> Ивдель


ПОГОДА в Ивдель

  • Прогноз погоды в Ивдель
  • Монитор погоды в Ивдель
  • Климат города

АРХИВ ПОГОДЫ в Ивдель

Время (UTC), дата Ветер
(напр.,м/с)
 
Видим.   Явления Облачность Т
(С)
Тd
(С)
f
(%)
Тe
(С)
Тes
(С)
Комфортность P
(гПа)
Po
(гПа)
Тmin
(С)
Tmax
(С)
R
(мм)
R24
(мм)
S
(см)
09 19.06 С 5-10
{12}
8000 м слабый ливневой дождь 10/10 300 м
[Cb cap]
+11.7 +10.2 91 +9 +9 989.3 978.2
12 19.06 С 4-10
{11}
10 км слабый ливневой дождь 10/10 570 м
[Cb cap]
+11.9 +10.1 89 +10 +10 989.2 978.2
15 19.06 С 3
{11}
24 км слабый ливневой дождь 10/10 660 м
[Cb cap]
+11.7 +9.7 88 +10 +10 988.9 977.9 +12.1 22
18 19.06 С 3
{10}
45 км {ливн. осадки} 10/10 660 м
[Cb cap]
+11.8 +9.3 85 +10 +10 988.8 977.7
21 19.06 СЗ 3 20 км 10/10 750 м
[Cb cap]
+11.4 +8.7 83 +10 +10 988.6 977.5
00 20.06 СЗ 3 50 км {ливн. осадки} 10/10 720 м
[Cb cap]
+10.9 +8.5 85 +9 +9 988.9 977.8
03 20.06 СЗ 2 12 км слабый ливневой дождь 10/10 800 м
[Cb cap]
+10.7 +8.9 89 +9 +9 989.7 978.6 +10.7 0.8
06 20.06 СЗ 2 50 км {ливн. осадки} 9/8 600 м
[Cb cap Ac trans]
+14.6 +8.9 69 +14 +16 990.1 979.2 +10.7
09 20.06 З 2 50 км 10/10 600 м
[Cb cap]
+15.9 +8.8 63 +16 +16 991.2 980.3
12 20.06 СЗ 1 50 км 9/8 600 м
[Cb cap Ci fib]
+19.4 +8.9 51 +21 +23 комфорт 991.4 980.6
15 20.06 Ю 2 50 км 9/1 1000 м
[Sc Ac trans Ci fib]
+19.0 +10.2 57 +20 +21 991.0 980.2 +20.8 0.4
18 20.06 СЗ 1 50 км 8/3 1000 м
[Sc Ci fib]
+11.7 +10.0 89 +11 +11 992.0 980.9
21 20.06 СЗ 1 50 км 8/0
[Ac trans Ci fib]
+8.1 +7.1 93 +7 +7 992.2 981.0
00 21.06 СЗ 2 50 км 8/0
[Ci fib]
+8.6 +7.7 94 +7 +7 992.7 981.5
03 21.06 С 1 50 км 4/0
[Ci fib]
+14.7 +9.7 72 +15 +20 993.3 982.3 +6.7
06 21.06 ЮВ 2 50 км 3/1 600 м
[Cu hum Ci fib]
+19.8 +10.4 55 +22 +32 комфорт 993.4 982.6
09 21.06 ЮВ 2 50 км 4/3 600 м
[Cb cap Ci fib]
+23.1 +6.7 35 +24 +33 комфорт 993.5 982.8
12 21.06 Ю 2 40 км 8/6 600 м
[Cb cap Ci fib]
+23.2 +7.2 36 +24 +27 комфорт 993.6 982.9
15 21.06 ЮЗ 1 50 км 8/6 600 м
[Cb cap Ci fib]
+19.3 +12.7 66 +22 +22 комфорт 994.5 983.7 +24.5
18 21.06 штиль 0 50 км 8/5 1000 м
[Sc Ci fib]
+16.1 +10.2 68 +16 +16 995.9 984.9
21 21.06 В 1 50 км 8/6 1000 м
[Sc Ac trans]
+11.1 +9.4 89 +11 +11 997.3 986.1
00 22.06 штиль 0 50 км 5/0
[Ac trans Ci fib]
+9.0 +7.8 92 +8 +8 997.7 986.4
03 22.06 Ю 1 50 км 9/1 1000 м
[Sc Ac trans Ci fib]
+17.9 +12.1 69 +19 +22 997.8 986.9 +8.6
06 22.06 Ю 2 50 км 10/6 600 м
[Cb cap Ac As]
+19.5 +9.9 54 +21 +23 комфорт 997.8 986.9
09 22.06 Ю 4 17 км слабый ливневой дождь 10/8 800 м
[Cb cap Ac As]
+17.0 +13.2 78 +17 +17 998.1 987.2
12 22.06 ЮВ 2
{11}
50 км в посл. час ливневой дождь 9/8 600 м
[Cb cap Ac trans]
+17.0 +14.7 86 +17 +18 998.3 987.3
15 22.06 Ю 2 50 км 6/6 600 м
[Cb cap]
+20.5 +13.2 63 +23 +24 комфорт 998.2 987.4 +21.4 5
18 22.06 ЮВ 2 50 км 5/5 600 м
[Cb cap]
+15.7 +12.0 79 +16 +16 998.9 987.9
21 22.06 штиль 0 600 м туман 8/8 600 м
[Cb cap]
+10.8 +9.7 93 +10 +10 999.0 987.8
00 23.06 В 1 700 м слабый ливневой дождь {туман} туман 10/10 600 м
[Cb cap]
+11.6 +10.7 94 +11 +11 998.3 987.2
03 23.06 штиль 0 3500 м дымка {ливн. осадки, туман} 9/6 600 м
[Cb cap Ci fib]
+14.3 +13.4 94 +14 +16 997.7 986.7 +10.4 0.4
06 23.06 З 4
{11}
50 км {ливн. осадки, туман} 8/8 600 м
[Cb cap]
+16.8 +8.9 60 +16 +18 999.0 988.0
09 23.06 ЮЗ 3
{11}
50 км 9/9 600 м
[Cb cap]
+18.5 +5.9 44 +19 +20 1001.1 990.2
12 23.06 ЮЗ 3 50 км 9/9 600 м
[Cb cap]
+18.6 +5.0 41 +19 +20 1001.8 990.8
15 23.06 Ю 1 50 км в посл. час ливневой дождь 9/9 600 м
[Cb cap]
+16.1 +9.8 66 +17 +17 1002.2 991.1 +20.0 0.3
18 23.06 З 2 50 км {ливн. осадки} 5/3 600 м
[Cb cap Ci fib]
+14.0 +5.9 58 +14 +14 1003.8 992.7
21 23.06 Ю 1 50 км 1/1 1000 м
[Sc]
+6.7 +5.4 91 +6 +6 1005.0 993.6
00 24.06 штиль 0 50 км 3/1 1000 м
[Sc Ci fib]
+5.5 +4.4 93 +4 +5 1005.3 993.8
03 24.06 ЮВ 2 50 км 3/1 1000 м
[Sc Ac trans Ci fib]
+13.9 +7.8 67 +13 +17 1005.0 993.8 +5.1
06 24.06 Ю 2 50 км 9/6 600 м
[Cb cap Ac trans]
+18.2 +3.1 37 +19 +22 1004.0 993.0
09 24.06 Ю 1 50 км 9/9 600 м
[Cb cap]
+19.2 +3.9 36 +21 +22 комфорт 1002.8 991.9
12 24.06 З 2 50 км {ливн. осадки} 8/6 600 м
[Cb cap Ac trans]
+17.9 +6.0 46 +18 +20 1002.5 991.5
15 24.06 З 1 50 км 9/4 600 м
[Cb cap Ci fib]
+17.0 +6.5 50 +18 +19 1002.5 991.5 +19.7
18 24.06 штиль 0 50 км 8/4 1000 м
[Sc Ac trans]
+13.0 +7.8 71 +13 +13 1002.9 991.7
21 24.06 штиль 0 50 км 3/0
[Ac trans]
+7.4 +6.0 91 +6 +6 1003.2 991.8
00 25.06 СЗ 1 50 км ясно +6.7 +5.2 90 +6 +6 1003.6 992.2
03 25.06 штиль 0 50 км 5/0
[Ci fib]
+16.4 +8.2 58 +16 +22 1003.3 992.3 +5.8
06 25.06 В 2 50 км 9/6 600 м
[Cb cap Ci fib]
+18.4 +6.1 44 +19 +23 1002.6 991.7
09 25.06 ЮВ 3 50 км 10/5 600 м
[Cu hum Cs]
+18.8 +5.7 42 +19 +24 1002.3 991.3
12 25.06 Ю 2 13 км слабый ливневой дождь 10/8 600 м
[Cb cap Ac trans]
+14.6 +10.6 77 +14 +15 1002.4 991.3
15 25.06 С 1 28 км слабый ливневой дождь 10/10 600 м
[Cb cap]
+13.2 +11.9 92 +13 +13 1001.3 990.2 +19.0 2
18 25.06 С 2 20 км слабый ливневой дождь 10/10 600 м
[Cb cap]
+12.4 +11.2 92 +11 +11 1000.2 989.1
21 25.06 СВ 3 20 км слабый ливневой дождь 10/10 600 м
[Cb cap]
+12.2 +10.9 92 +11 +11 997.8 986.7
00 26.06 СВ 2 17 км ливневой дождь 10/10 600 м
[Cb cap]
+12.7 +11.7 94 +12 +12 996.1 985.0
03 26.06 СВ 2 15 км в посл. час ливневой дождь 10/10 600 м
[Cb cap]
+13.8 +12.7 93 +13 +13 995.7 984.7 +12.1 28
06 26.06 С 3 18 км в посл. час ливневой дождь 10/10 420 м
[Cb cap]
+13.8 +12.5 92 +13 +13 995.9 984.9

 

Местоположение метеостанции Ивдель (Свердловская область, Россия): широта 60.68 долгота 60.45 высота над уровнем моря 94 м.

В архиве по умолчанию представлена погода в Ивдель за последнюю неделю. Архивные данные за месяц целиком и за предыдущие месяцы, начиная с января 2011 года, Вы можете получить, выбрав интересующий диапазон дат из раскрывающегося списка и нажав кнопку "Ввод!".

Внимание! Время в таблицах - всемирное. Для получения местного времени необходимо прибавить поправку, которая в Ивдель равна 5 ч.

Смотрите также архив погоды в соседних городах и на ближайших метеорологических станциях:

Погода в Североуральске (Свердловская область, Россия) (56 км)
Погода в Атымье (Свердловская область, Россия) (103 км)
Погода в Карпинске (Свердловская область, Россия) (106 км)
Погода в Серове (Свердловская область, Россия) (120 км)
Погода в Кытлыме (Свердловская область, Россия) (148 км)
Погода в Гари (Свердловская область, Россия) (174 км)
Погода в Няксимволе (Ханты-Мансийский АО, Россия) (196 км)
Погода в Верхотурье (Свердловская область, Россия) (202 км)
Погода в Ныробе (Пермский край, Россия) (203 км)
Погода в Шаиме (Ханты-Мансийский АО, Россия) (210 км)

Пояснения к столбцам:

Ветер - указаны скорость ветра в м/с - средняя за 10 мин, порывы в срок и между сроками (в фигурных скобках) и направление, откуда дует ветер: С - северный, СВ - северо-восточный, В - восточный, ЮВ - юго-восточный, Ю - южный, ЮЗ - юго-западный, З - западный, СЗ - северо-западный.
Видимость - горизонтальная дальность видимости в метрах или километрах. При видимости от 1 до 10 км при отсутствии осадков обычно наблюдается дымка, при ухудшении видимости до 1 км и менее - туман. В сухую погоду видимость может ухудшаться дымом, пылью или мглою.
Явления - указаны атмосферные явления, наблюдавшиеся в срок или в последний час перед сроком; фигурными скобками обозначены явления, наблюдавшиеся между сроками (за 1-3 часа до срока); квадратными скобками обозначены град или гололедные отложения с указанием их диаметра в мм.
Облачность - указаны через наклонную черту общая и нижняя облачность в баллах и высота нижней границы облаков в метрах; квадратными скобками обозначены формы облаков: Ci - перистые, Cs - перисто-слоистые, Cc - перисто-кучевые, Ac - высококучевые, As - высокослоистые, Sc - слоисто-кучевые, Ns - слоисто-дождевые, Cu - кучевые, Cb - кучево-дождевые. Подробнее классификацию облаков см. в Атласе облаков (PDF).
T - Температура воздуха - температура, измеренная на высоте 2 м над землей.
Td - Температура точки росы - температура, при понижении до которой содержащийся в воздухе водяной пар достигнет насыщения.
f - Относительная влажность воздуха - влажноcть воздуха, измеренная на высоте 2 м над землей.
Te - Эффективная температура - температура, которую ощущает одетый по сезону человек в тени. Характеристика душности погоды. При расчете учитывается влияние влажности воздуха и скорости ветра на теплоощущения человека.
Tes - Эффективная температура на солнце - температура, которую ощущает человек, с поправкой на солнечный нагрев. Характеристика знойности погоды. Зависит от высоты солнца над горизонтом, облачности и скорости ветра. Ночью, в пасмурную погоду, а также при ветре 12 м/с и более поправка равна нулю.
P - Атмосферное давление - приведенное к уровню моря атмосферное давление.
Po - Атмосферное давление - измеренное на уровне метеостанции атмосферное давление.
Tmin - Минимальная температура - минимум температуры воздуха на высоте 2 м над землей.
Tmax - Максимальная температура - максимум температуры воздуха на высоте 2 м над землей.
R - Количество осадков - Количество выпавших осадков за период времени, мм. При наведении курсора мыши на число - период времени, за который выпало указанное количество осадков.
R24 - Количество осадков - Количество выпавших осадков за 24 часа, мм.
S - Снежный покров - Высота снежного покрова, см. При наведении курсора мыши на число - состояние снежного покрова и степень покрытия местности в баллах.